Norfolk NAS, VA

3:47 AM EST on December 06, 2019 (GMT -0500)
Norfolk Naval Station / Chambers Field

Weather History for KNGU - October, 2019

Change the Weather History Date:

Saturday, October 12, 2019

  Actual Average Record
Temperature  
Mean Temperature 64 °F -  
Max Temperature 77 °F 69 °F 87 °F (2010)
Min Temperature 54 °F 55 °F 46 °F (1996)
Growing Degree Days 14 (Base 50)    
Moisture  
Dew Point 56 °F    
Average Humidity 75    
Maximum Humidity 97    
Minimum Humidity 44    
Precipitation  
Precipitation 0.00 in - - ()
Sea Level Pressure  
Sea Level Pressure 30.02 in    
Wind  
Wind Speed 4 mph (South)    
Max Wind Speed 8 mph    
Max Gust Speed -    
Visibility 10 miles    
Events      
Averages and records for this station are not official NWS values.
T = Trace of Precipitation, MM = Missing Value Source: NWS Daily Summary

Daily Weather History Graph

Daily Weather History Graph

Search for Another Location

Airport or City:

Astronomy

Oct. 12, 2019 Rise Set
Actual Time 7:09 AM EDT 6:32 PM EDT
Civil Twilight 6:43 AM EDT 6:58 PM EDT
Nautical Twilight 6:13 AM EDT 7:28 PM EDT
Astronomical Twilight 5:43 AM EDT 7:59 PM EDT
Moon 6:24 PM EDT (10/12) 5:48 AM EDT (10/12)
Length of Visible Light 12h 15m
Length of Day
11h 23m
Waxing Gibbous, 99% of the Moon is Illuminated
Oct 12
Waxing Gibbous
Oct 13
Full
Oct 21
Last Quarter
Oct 27
New
Nov 4
First Quarter

Hourly Weather History & Observations

Time (EDT) Temp. Dew Point Humidity Pressure Visibility Wind Dir Wind Speed Gust Speed Precip Events Conditions
12:59 AM 55.0 °F 52.0 °F 89% 30.05 in 10.0 mi Variable 3.5 mph - N/A   Clear
1:59 AM 57.0 °F 53.1 °F 87% 30.04 in 10.0 mi NNW 4.6 mph - N/A   Partly Cloudy
2:59 AM 55.9 °F 53.1 °F 90% 30.03 in 10.0 mi WSW 4.6 mph - N/A   Partly Cloudy
3:59 AM 55.9 °F 54.0 °F 93% 30.02 in 10.0 mi WSW 4.6 mph - N/A   Partly Cloudy
4:59 AM 54.0 °F 52.0 °F 93% 30.00 in 10.0 mi SSW 3.5 mph - N/A   Scattered Clouds
5:59 AM 55.9 °F 54.0 °F 93% 30.02 in 10.0 mi WSW 4.6 mph - N/A   Scattered Clouds
6:59 AM 54.0 °F 53.1 °F 97% 30.03 in 10.0 mi Calm Calm - N/A   Scattered Clouds
7:59 AM 55.0 °F 54.0 °F 96% 30.04 in 10.0 mi WSW 4.6 mph - N/A   Scattered Clouds
8:59 AM 63.0 °F 55.9 °F 78% 30.05 in 10.0 mi WSW 5.8 mph - N/A   Scattered Clouds
9:59 AM 64.9 °F 55.0 °F 70% 30.04 in 10.0 mi SW 3.5 mph - N/A   Scattered Clouds
10:59 AM 66.9 °F 53.1 °F 61% 30.05 in 10.0 mi WSW 3.5 mph - N/A   Scattered Clouds
11:59 AM 71.1 °F 53.1 °F 53% 30.03 in 10.0 mi SW 5.8 mph - N/A   Scattered Clouds
12:59 PM 73.9 °F 51.1 °F 45% 30.01 in 10.0 mi Variable 5.8 mph - N/A   Scattered Clouds
1:59 PM 75.0 °F 52.0 °F 44% 29.98 in 10.0 mi Variable 3.5 mph - N/A   Scattered Clouds
2:59 PM 75.9 °F 55.0 °F 48% 29.98 in 10.0 mi NE 4.6 mph - N/A   Scattered Clouds
3:59 PM 73.9 °F 59.0 °F 59% 29.97 in 10.0 mi ENE 8.1 mph - N/A   Partly Cloudy
4:59 PM 73.0 °F 61.0 °F 66% 29.97 in 10.0 mi East 6.9 mph - N/A   Scattered Clouds
5:59 PM 72.0 °F 60.1 °F 66% 29.97 in 10.0 mi SE 8.1 mph - N/A   Scattered Clouds
6:59 PM 69.1 °F 59.0 °F 70% 29.99 in 10.0 mi SE 4.6 mph - N/A   Mostly Cloudy
7:59 PM 66.9 °F 57.9 °F 73% 30.00 in 10.0 mi SE 3.5 mph - N/A   Scattered Clouds
8:59 PM 66.9 °F 57.9 °F 73% 30.02 in 10.0 mi Calm Calm - N/A   Mostly Cloudy
9:59 PM 64.0 °F 59.0 °F 84% 30.03 in 10.0 mi East 3.5 mph - N/A   Mostly Cloudy
10:59 PM 64.9 °F 59.0 °F 81% 30.03 in 10.0 mi Calm Calm - N/A   Mostly Cloudy
11:59 PM 64.0 °F 59.0 °F 84% 30.03 in 10.0 mi East 3.5 mph - N/A   Scattered Clouds